Flag for Germany Weather past 2 weeks in Bayreuth, Bavaria, Germany

Now
61 °F

Clear.


Feels Like: 61 °F
Forecast: 53 / 83 °F
Wind: No wind

Location: Grafenwoehr

Current Time: Jul 25, 2014 at 11:20:00 PM

Latest Report: Jul 25, 2014 at 10:58 PM


Visibility: N/A

Pressure: 29.89 "Hg

Humidity: 90%

Dew point: 58 °F

Location of BayreuthLocation

Historic Weather in Bayreuth — Graph

°F

Bayreuth temperature yesterday

Maximum temperature yesterday: 79 °F (at 2:58 PM)
Minimum temperature yesterday: 50 °F (at 5:58 AM)
Average temperature yesterday: 65 °F

Past Weeks' High & Low Weather Summary

 TemperatureHumidityPressure
High90 °F (Jul 20, 3:58 PM)100% (Jul 12, 4:58 AM)30.16 "Hg (Jul 12, 4:58 AM)
Low50 °F (Jul 24, 5:58 AM)29% (Jul 18, 6:58 PM)29.74 "Hg (Jul 21, 12:58 AM)
Average67 °F73%29.95 "Hg
* Reported Jul 10 9:58 PM — Jul 25 9:58 PM, Bayreuth, Weather by CustomWeather, © 2014

Note: Actual official high and low records may vary slightly from our data, if they occured in-between our weather recording intervals... More about our weather records

Advertising

Bayreuth weather history for previous 24 hours

 ConditionsComfort  
Time TempWeatherWind HumidityBarometerVisibility
9:58 PM
Jul 25
64 °FPassing clouds.No wind83%29.89 "HgN/A
8:58 PM69 °FPartly sunny.No wind75%29.88 "HgN/A
7:58 PM72 °FOvercast.No wind65%29.88 "HgN/A
6:58 PM73 °FPartly sunny.7 mph57%29.88 "HgN/A
5:58 PM74 °FScattered clouds.7 mph53%29.88 "HgN/A
4:58 PM75 °FPartly sunny.8 mph50%29.87 "HgN/A
3:58 PM76 °FPartly sunny.3 mph49%29.88 "HgN/A
2:58 PM75 °FBroken clouds.6 mph50%29.88 "HgN/A
1:58 PM76 °FSunny.6 mph50%29.90 "HgN/A
12:58 PM74 °FSunny.1 mph53%29.91 "HgN/A
11:58 AM72 °FSunny.5 mph53%29.93 "HgN/A
10:58 AM69 °FSunny.5 mph61%29.93 "HgN/A
9:58 AM65 °FSunny.No wind67%29.93 "HgN/A
8:58 AM61 °FSunny.No wind83%29.93 "HgN/A
7:58 AM56 °FSunny.No wind91%29.93 "HgN/A
6:58 AM51 °FSunny.No wind92%29.93 "HgN/A
5:58 AM50 °FClear.No wind94%29.93 "HgN/A
4:58 AM50 °FClear.No wind100%29.93 "HgN/A
3:58 AM52 °FClear.No wind93%29.91 "HgN/A
2:58 AM53 °FClear.No wind92%29.91 "HgN/A
1:58 AM54 °FClear.No wind92%29.93 "HgN/A
12:58 AM56 °FClear.1 mph90%29.92 "HgN/A
11:58 PM
Jul 24
58 °FClear.No wind86%29.92 "HgN/A
Weather by CustomWeather, © 2014

See weather overviewHow to use our weather pages